Zurück zum Katalog

STARLINK-31245

AktivKommunikationVLEO
NORAD 58891·PAYLOAD·🇺🇸 United States

Gestartet Jan 29, 2024 von Vandenberg Space Force Base

Loading…

Nächste Überflüge (nächste 24 Stunden)

TLE

AktuellSource: CelesTrak SupGP

Epoche: Sep 15, 2026, 01:42 UTC

1 58891C 24020R   26258.07131944  .00052362  00000+0  15475-2 0  2580
2 58891  53.1562 117.4203 0001176  82.3465  75.4268 15.34355605    16

Verfolge STARLINK-31245 in Echtzeit mit AllMySat

Download on the App Store